FW4685 Weather Reports


Display with metric or nautical units.
time (UTC)temp
F
wind
direction
speed
MPH
gust
MPH
rain 1hr
in
rain 24hr
in
rain mn
in
humidity
%
barometer
mb
20260503013019 55 68 0.0 0.0 0.00 0.05 0.00 97 1011.8
20260503012022 55 37 0.0 0.0 0.00 0.05 0.00 97 1011.8
20260503011024 55 185 0.0 0.0 0.00 0.05 0.00 97 1012.0
20260503010028 55 22 0.0 0.0 0.00 0.05 0.00 97 1012.0
20260503005031 55 17 0.0 0.0 0.00 0.05 0.00 97 1012.2
20260503004031 55 50 0.0 0.0 0.00 0.05 0.00 97 1012.1
20260503003032 55 342 0.0 2.0 0.00 0.05 0.00 97 1012.2
20260503002020 55 346 0.0 0.0 0.00 0.05 0.00 97 1012.3
20260503001023 55 321 0.0 0.0 0.00 0.05 0.00 97 1012.4
20260503000025 55 87 0.0 2.0 0.00 0.05 0.00 98 1012.5
20260502235027 55 184 0.0 2.0 0.00 0.05 0.00 98 1012.5
20260502234028 54 138 0.0 2.0 0.00 0.05 0.00 98 1012.4
20260502233028 54 143 0.0 2.0 0.00 0.05 0.00 98 1012.5
20260502232031 54 143 0.0 2.0 0.00 0.05 0.00 98 1012.6
20260502231018 54 150 0.0 0.0 0.00 0.05 0.00 98 1012.7
20260502230019 54 117 0.0 0.0 0.00 0.05 0.00 98 1012.6
20260502225023 54 12 0.0 0.0 0.00 0.05 0.05 97 1012.7
20260502224027 54 349 0.0 0.0 0.00 0.05 0.05 97 1012.7
20260502223030 54 13 0.0 0.0 0.00 0.05 0.05 97 1012.6
20260502222038 55 1 0.0 0.0 0.00 0.05 0.05 97 1012.6
20260502221018 55 124 0.0 0.0 0.00 0.05 0.05 96 1012.7
20260502220022 55 31 0.0 0.0 0.00 0.05 0.05 96 1012.7
20260502215025 55 155 0.0 0.0 0.00 0.05 0.05 96 1012.7
20260502214028 55 138 0.0 0.0 0.00 0.05 0.05 95 1012.7
20260502213031 56 135 0.0 0.0 0.00 0.05 0.05 95 1012.7
20260502212019 56 69 0.0 0.0 0.00 0.05 0.05 95 1012.8
20260502211022 56 52 0.0 0.0 0.00 0.05 0.05 95 1012.9
20260502210100 57 75 0.0 0.0 0.00 0.05 0.05 94 1013.1
20260502205024 57 159 0.0 0.0 0.00 0.05 0.05 94 1013.0
20260502204024 57 85 0.0 0.0 0.00 0.05 0.05 94 1013.2
20260502203027 57 169 0.0 2.0 0.00 0.05 0.05 94 1013.2
20260502202018 57 155 0.0 2.0 0.00 0.05 0.05 94 1013.1
20260502201019 57 195 0.0 2.0 0.00 0.05 0.05 93 1012.9
20260502200037 57 171 0.0 2.0 0.00 0.05 0.05 93 1012.8
20260502195017 57 151 0.0 5.0 0.00 0.05 0.05 93 1012.9
20260502194018 57 149 0.0 2.0 0.00 0.05 0.05 93 1013.1
20260502193031 57 162 0.0 5.0 0.00 0.05 0.05 93 1013.2
20260502192018 57 145 0.0 5.0 0.00 0.05 0.05 94 1013.0
20260502191020 57 165 0.0 5.0 0.00 0.05 0.05 95 1013.2
20260502190022 58 171 0.0 2.0 0.00 0.05 0.05 95 1013.1
20260502185022 57 169 0.0 5.0 0.00 0.05 0.05 95 1013.2
20260502184023 57 43 0.0 0.0 0.00 0.05 0.05 95 1013.1
20260502182024 57 44 0.0 0.0 0.00 0.05 0.05 94 1013.3
20260502181023 57 43 0.0 0.0 0.00 0.05 0.05 94 1013.3
20260502164040 61 158 1.0 7.0 0.04 0.04 0.04 87 1014.6
20260502163042 63 145 0.0 2.0 0.02 0.02 0.02 82 1014.8
20260502162022 65 178 0.0 2.0 0.01 0.01 0.01 76 1014.9
20260502161044 67 144 0.0 2.0 0.00 0.00 0.00 72 1014.7
20260502152031 72 159 1.0 5.0 0.00 0.00 0.00 54 1014.6
20260502151016 73 119 0.0 5.0 0.00 0.00 0.00 52 1014.8
20260502123029 72 83 1.0 7.0 0.00 0.00 0.00 45 1017.2
20260502122024 71 72 1.0 7.0 0.00 0.00 0.00 49 1017.4
20260502121023 70 151 0.0 5.0 0.00 0.00 0.00 50 1017.5
20260502115021 69 112 0.0 2.0 0.00 0.00 0.00 48 1017.7
20260502114023 69 35 1.0 7.0 0.00 0.00 0.00 54 1018.1
20260502113025 68 156 1.0 5.0 0.00 0.00 0.00 53 1018.2
20260502112047 67 45 0.0 2.0 0.00 0.00 0.00 54 1018.1
20260502111027 67 176 0.0 2.0 0.00 0.00 0.00 55 1018.2
20260502110029 67 101 1.0 5.0 0.00 0.00 0.00 58 1018.5
20260502105031 67 109 1.0 5.0 0.00 0.00 0.00 59 1018.8
20260502104031 66 153 1.0 5.0 0.00 0.00 0.00 60 1019.1
20260502103029 65 148 0.0 0.0 0.00 0.00 0.00 63 1018.9
20260502102026 65 81 0.0 2.0 0.00 0.00 0.00 64 1019.0
20260502101047 64 153 1.0 7.0 0.00 0.00 0.00 65 1019.2
20260502091019 58 114 0.0 5.0 0.00 0.00 0.00 75 1019.8
20260502071019 53 48 0.0 0.0 0.00 0.00 0.00 89 1020.4
20260502070021 53 154 0.0 2.0 0.00 0.00 0.00 89 1020.2
20260502065023 53 136 0.0 2.0 0.00 0.00 0.00 91 1020.2
20260502064042 52 346 0.0 2.0 0.00 0.00 0.00 93 1020.2
20260502063027 52 9 0.0 0.0 0.00 0.00 0.00 94 1020.2
20260502062030 51 63 0.0 0.0 0.00 0.00 0.00 95 1020.3
20260502061028 51 18 0.0 0.0 0.00 0.00 0.00 96 1020.2
20260502060028 51 236 0.0 0.0 0.00 0.00 0.00 97 1020.2
20260502055030 51 15 0.0 0.0 0.00 0.00 0.00 97 1020.3
20260502054029 51 14 0.0 2.0 0.00 0.00 0.00 97 1020.2
20260502052030 50 359 0.0 2.0 0.00 0.00 0.00 97 1020.2
20260502051029 50 38 0.0 0.0 0.00 0.00 0.00 97 1020.2
20260502050109 50 226 0.0 0.0 0.00 0.00 0.00 98 1020.1
20260502045029 50 255 0.0 0.0 0.00 0.00 0.00 98 1020.1
20260502044030 50 323 0.0 0.0 0.00 0.00 0.00 98 1020.2
20260502043046 50 320 0.0 0.0 0.00 0.00 0.00 98 1020.2
20260502042025 50 65 0.0 0.0 0.00 0.00 0.00 98 1020.1
20260502041028 50 44 0.0 2.0 0.00 0.00 0.00 97 1020.0
20260502040029 50 27 0.0 0.0 0.00 0.00 0.00 97 1020.1
20260502035029 50 214 0.0 2.0 0.00 0.00 0.00 97 1020.3
20260502034029 50 219 0.0 2.0 0.00 0.00 0.00 97 1020.3
20260502033028 50 225 0.0 2.0 0.00 0.00 0.00 97 1020.3
20260502032030 50 72 0.0 0.0 0.00 0.00 0.00 97 1020.4
20260502031029 49 21 0.0 0.0 0.00 0.00 0.00 97 1020.7
20260502030029 49 180 0.0 2.0 0.00 0.00 0.00 97 1020.5
20260502025030 49 197 0.0 2.0 0.00 0.00 0.00 97 1020.5
20260502024030 49 11 0.0 0.0 0.00 0.00 0.00 97 1020.6
20260502023029 49 288 0.0 0.0 0.00 0.00 0.00 96 1020.5
20260502022029 49 23 0.0 2.0 0.00 0.00 0.00 96 1020.4
20260502021056 49 301 0.0 0.0 0.00 0.00 0.00 96 1020.5
20260502020016 49 26 0.0 0.0 0.00 0.00 0.00 95 1020.5
20260502015037 49 199 0.0 2.0 0.00 0.00 0.00 95 1020.5
20260502014017 49 342 0.0 0.0 0.00 0.00 0.00 94 1020.7